Regional Weather Roundup
Issued by NWS

Home | Current Version | Previous Version | Text Only | Print | Product List | Glossary On
Versions: 1 2 3 4 5 6 7 8 9 10 11 12 13 14 15 16 17 18 19 20 21 22 23 24 25 26 27 28 29 30 31 32 33 34 35 36 37 38 39 40 41 42 43 44 45 46 47 48 49 50
239
ASUS43 KMKX 282111
RWRWI

WISCONSIN REGIONAL WEATHER ROUNDUP
NATIONAL WEATHER SERVICE MILWAUKEE/SULLIVAN WI
400 PM CDT FRI APR 28 2017

NOTE: "FAIR" INDICATES FEW OR NO CLOUDS BELOW 12,000 FEET WITH NO
SIGNIFICANT WEATHER AND/OR OBSTRUCTIONS TO VISIBILITY.

WIZ001-002-006>008-014>016-023>028-282200-
NORTHWEST WISCONSIN

CITY           SKY/WX    TMP DP  RH WIND       PRES   REMARKS
SUPERIOR ARPT  CLOUDY    51  27  39 NW8G17    29.92S
ASHLAND        CLOUDY    47  29  49 W10       29.94S
HAYWARD        CLOUDY    47  25  42 N7        29.92S
SIREN          CLOUDY    48  25  41 N9        29.94R
CUMBERLAND     CLOUDY    45  27  49 N7        29.95R
RICE LAKE      CLOUDY    46  30  53 W3        29.95R
CHETEK         NOT AVBL
LADYSMITH      CLOUDY    45  28  51 NW9       29.94S
EAU CLAIRE     CLOUDY    49  28  44 MISG      29.93S
MENOMONIE      CLOUDY    48  28  45 CALM      29.94R
NEW RICHMOND   CLOUDY    47  28  48 NW9G17    29.95S
OSCEOLA        PTSUNNY   47  30  51 W5        29.99R
$$

WIZ003>005-009-010-017-018-282200-
NORTH CENTRAL WISCONSIN

CITY           SKY/WX    TMP DP  RH WIND       PRES   REMARKS
MANITOWISH WTR CLOUDY    37  28  70 W12       29.91  WCI  29
ARBOR VITAE    CLOUDY    39  28  64 NW6       29.91S WCI  35
WOODRUFF       CLOUDY    39  28  64 NW6       29.91S WCI  35
RHINELANDER    CLOUDY    44  29  55 W12       29.91S
EAGLE RIVER    CLOUDY    38  25  58 W10       29.90F WCI  32
LAND O LAKES   CLOUDY    39  26  59 W10G16    29.91S WCI  32
PHILLIPS       CLOUDY    42  28  58 W5        29.92R
TOMAHAWK       MOSUNNY   44  29  55 W10       29.91S
MEDFORD        PTSUNNY   44  29  57 W7        29.91S
MERRILL        PTSUNNY   45  29  53 W5        29.91F
$$

WIZ029-030-035-036-043>047-282200-
CENTRAL WISCONSIN

CITY           SKY/WX    TMP DP  RH WIND       PRES   REMARKS
WAUSAU         CLOUDY    45  30  55 W9        29.90F
MOSINEE        CLOUDY    45  30  57 W7        29.92F
MARSHFIELD     CLOUDY    46  29  51 SW7       29.91S
STEVENS POINT  CLOUDY    45  30  56 W7        29.93S
WAUPACA        PTSUNNY   54  33  45 SW10      29.91F
WAUTOMA        PTSUNNY   51  33  50 SW9       29.90F
WISC RAPIDS    CLOUDY    48  31  51 NW6       29.93S
CAMP DOUGLAS   CLOUDY    48  34  57 NW7       29.91F
$$

WIZ011>013-019>022-031-037>040-048>050-282200-
NORTHEAST WISCONSIN

CITY           SKY/WX    TMP DP  RH WIND       PRES   REMARKS
ANTIGO         PTSUNNY   43  30  61 W5        29.91S
SHAWANO        CLOUDY    51  31  45 W8        29.91F
OCONTO         MOSUNNY   49  31  51 SW12      29.91F
STURGEON BAY   PTSUNNY   47  36  65 S5G16     29.93F
GREEN BAY      MOSUNNY   52  37  56 W10       29.91F
MANITOWOC      CLOUDY    45  35  68 SE10      29.93F
APPLETON       PTSUNNY   50  32  50 W6        29.89F
CLINTONVILLE   MOSUNNY   48  30  49 W6        29.91F
OSHKOSH        MOSUNNY   51  35  54 VRB6      29.89F
$$

WIZ032>034-041-042-053>061-282200-
SOUTHWEST WISCONSIN

CITY           SKY/WX    TMP DP  RH WIND       PRES   REMARKS
LA CROSSE      CLOUDY    49  33  54 N5        29.91F
SPARTA         CLOUDY    48  33  55 NW3       29.92F
VIROQUA        CLOUDY    47  33  58 N6        29.90S
BOSCOBEL       LGT RAIN  51  32  48 NE6       29.89F
PRAIRIE DU CHI LGT RAIN  47  35  61 NW6       29.89S
PLATTEVILLE    CLOUDY    46  42  84 NE8       29.88S
$$

WIZ056-057-062-063-064-067-068-282200-
SOUTH CENTRAL WISCONSIN

CITY           SKY/WX    TMP DP  RH WIND       PRES   REMARKS
REEDSBURG      CLOUDY    48  32  53 NW3       29.89
BARABOO/DELLS  CLOUDY    49  32  51 N3        29.89F
LONE ROCK      CLOUDY    51  33  50 NW5       29.90S
MINERAL POINT  CLOUDY    50  39  66 NE5       29.89R
MADISON        CLOUDY    48  35  60 E3        29.89F
MIDDLETON      CLOUDY    49  38  66 SE6       29.90S
WATERTOWN      DRIZZLE   50  38  62 CALM      29.89S
MONROE         DRIZZLE   45  39  81 NE8       29.87F
JANESVILLE     CLOUDY    54  43  66 NE6       29.87F
$$

WIZ051-052-058>065-066-070>072-282200-
SOUTHEAST WISCONSIN

CITY           SKY/WX    TMP DP  RH WIND       PRES   REMARKS
MILWAUKEE      CLOUDY    47  39  74 E9        29.90F
WAUKESHA       PTSUNNY   52  39  62 S3        29.90F
MILWAUKEE/TIMM PTSUNNY   50  36  57 E8        29.90F
RACINE         CLOUDY    47  39  74 SE5       29.92F
KENOSHA        CLOUDY    48  40  73 E7        29.89F
FOND DU LAC    PTSUNNY   51  35  54 CALM      29.89F
SHEBOYGAN      PTSUNNY   46  40  79 SE7       29.91F
WEST BEND      CLOUDY    52  34  50 CALM      29.89F
JUNEAU         PTSUNNY   49  36  61 CALM      29.91S
$$

LSZ147-162-282200-
LAKE SUPERIOR

STATION/POSITION TIME  TEMP    WIND        PRES    WAVE
                       AIR SEA DIR/SP/G            HT/PER
                 (UTC) (F)     (DEG/KT/KT) (MB)    (FT/S)
DEVILS ISLAND    2100   39     240/ 14/ 17 1013.6R
SAXON HARBOR     2030   43     300/  7/ 14 1013.2S
$$

LMZ867-665-643>646-282200-
LAKE MICHIGAN

STATION/POSITION TIME  TEMP    WIND        PRES    WAVE
                       AIR SEA DIR/SP/G            HT/PER
                 (UTC) (F)     (DEG/KT/KT) (MB)    (FT/S)
CHAMBERS ISLAND  2040   46     160/  8/ 14 1013.2S
N MID LAKE BUOY  2050   38 37  190/ 10/ 14 1015.2F   3/ 5
NORTHPORT PIER   2040   46     170/  3/ 12 1013.5F
KEWAUNEE LAKESHO 2048   41     170/ 15/ 16 1013.1F
SHEBOYGAN LAKESH 2100   40     150/  7/  8 1013.3F
PORT WASHINGTON  2040   43     130/  4/  6 1014.2F
MILWAUKEE LAKESH 2050   42     120/  8/  9   N/A
S MID LAKE BUOY  1950   42 42   30/  6/  8 1014.3F   0
KENOSHA   LAKESH 2100   44      90/  4/  5 1012.5
$$

TC  - TEMPERATURE IN CELSIUS
VSB - VISIBILITY IN STATUTE MILES
WCI - WIND CHILL INDEX
HX  - HEAT INDEX





USA.gov is the U.S. government's official web portal to all federal, state and local government web resources and services.